| time (UTC) | temp F | wind direction | speed MPH | gust MPH | rain 1hr in | rain 24hr in | rain mn in | humidity % | barometer mb |
| 20260505013815 | 73 | 23 | 20.0 | 28.0 | 0.00 | 0.00 | 0.00 | 36 | 1001.2 |
| 20260505012703 | 74 | 19 | 15.0 | 21.0 | 0.00 | 0.00 | 0.00 | 38 | 1001.1 |
| 20260505012014 | 74 | 21 | 16.0 | 24.0 | 0.00 | 0.00 | 0.00 | 38 | 1001.1 |
| 20260505011117 | 75 | 21 | 23.0 | 33.0 | 0.00 | 0.00 | 0.00 | 38 | 1000.7 |
| 20260505010003 | 76 | 1 | 15.0 | 22.0 | 0.00 | 0.00 | 0.00 | 37 | 1000.6 |
| 20260505005403 | 76 | 2 | 11.0 | 20.0 | 0.00 | 0.00 | 0.00 | 40 | 1000.4 |
| 20260505004713 | 76 | 54 | 4.0 | 13.0 | 0.00 | 0.00 | 0.00 | 48 | 1000.3 |
| 20260505003603 | 77 | 143 | 5.0 | 5.0 | 0.00 | 0.00 | 0.00 | 46 | 999.8 |
| 20260505002912 | 78 | 156 | 5.0 | 7.0 | 0.00 | 0.00 | 0.00 | 46 | 999.7 |
| 20260505002015 | 79 | 159 | 6.0 | 9.0 | 0.00 | 0.00 | 0.00 | 42 | 999.7 |
| 20260505001117 | 80 | 161 | 9.0 | 12.0 | 0.00 | 0.00 | 0.00 | 39 | 999.8 |
| 20260505000003 | 80 | 160 | 8.0 | 11.0 | 0.00 | 0.00 | 0.00 | 39 | 999.7 |
| 20260504235616 | 81 | 163 | 9.0 | 12.0 | 0.00 | 0.00 | 0.00 | 39 | 999.8 |
| 20260504234713 | 82 | 168 | 7.0 | 12.0 | 0.00 | 0.00 | 0.00 | 37 | 999.8 |
| 20260504233603 | 82 | 132 | 3.0 | 4.0 | 0.00 | 0.00 | 0.00 | 38 | 999.8 |
| 20260504232913 | 82 | 132 | 3.0 | 4.0 | 0.00 | 0.00 | 0.00 | 32 | 999.9 |
| 20260504232015 | 83 | 132 | 2.0 | 4.0 | 0.00 | 0.00 | 0.00 | 34 | 999.9 |
| 20260504231113 | 83 | 131 | 4.0 | 7.0 | 0.00 | 0.00 | 0.00 | 33 | 999.8 |
| 20260504230215 | 83 | 129 | 4.0 | 8.0 | 0.00 | 0.00 | 0.00 | 32 | 999.9 |
| 20260504225617 | 83 | 123 | 4.0 | 8.0 | 0.00 | 0.00 | 0.00 | 31 | 999.8 |
| 20260504224503 | 84 | 64 | 4.0 | 8.0 | 0.00 | 0.00 | 0.00 | 30 | 999.7 |
| 20260504223603 | 84 | 68 | 3.0 | 8.0 | 0.00 | 0.00 | 0.00 | 26 | 999.7 |
| 20260504222914 | 85 | 62 | 5.0 | 9.0 | 0.00 | 0.00 | 0.00 | 25 | 999.6 |
| 20260504222016 | 85 | 57 | 4.0 | 10.0 | 0.00 | 0.00 | 0.00 | 26 | 999.5 |
| 20260504221113 | 84 | 137 | 5.0 | 8.0 | 0.00 | 0.00 | 0.00 | 25 | 999.5 |
| 20260504220004 | 85 | 133 | 7.0 | 9.0 | 0.00 | 0.00 | 0.00 | 27 | 999.5 |
| 20260504215403 | 86 | 107 | 6.0 | 9.0 | 0.00 | 0.00 | 0.00 | 26 | 999.5 |
| 20260504214715 | 86 | 80 | 6.0 | 9.0 | 0.00 | 0.00 | 0.00 | 25 | 999.6 |
| 20260504213603 | 87 | 158 | 2.0 | 8.0 | 0.00 | 0.00 | 0.00 | 25 | 999.7 |
| 20260504212914 | 86 | 185 | 4.0 | 8.0 | 0.00 | 0.00 | 0.00 | 26 | 999.7 |
| 20260504211803 | 87 | 157 | 2.0 | 6.0 | 0.00 | 0.00 | 0.00 | 29 | 999.7 |
| 20260504211114 | 87 | 115 | 3.0 | 6.0 | 0.00 | 0.00 | 0.00 | 24 | 999.8 |
| 20260504210216 | 86 | 179 | 3.0 | 7.0 | 0.00 | 0.00 | 0.00 | 28 | 999.9 |
| 20260504205613 | 86 | 299 | 3.0 | 9.0 | 0.00 | 0.00 | 0.00 | 24 | 1000.0 |
| 20260504204503 | 86 | 240 | 3.0 | 5.0 | 0.00 | 0.00 | 0.00 | 26 | 1000.3 |
| 20260504203603 | 85 | 228 | 2.0 | 5.0 | 0.00 | 0.00 | 0.00 | 25 | 1000.4 |
| 20260504202703 | 85 | 266 | 4.0 | 9.0 | 0.00 | 0.00 | 0.00 | 25 | 1000.4 |
| 20260504201803 | 85 | 284 | 5.0 | 9.0 | 0.00 | 0.00 | 0.00 | 28 | 1000.5 |
| 20260504201115 | 85 | 278 | 4.0 | 9.0 | 0.00 | 0.00 | 0.00 | 29 | 1000.5 |
| 20260504200003 | 85 | 259 | 4.0 | 9.0 | 0.00 | 0.00 | 0.00 | 30 | 1000.7 |
| 20260504195403 | 84 | 275 | 5.0 | 9.0 | 0.00 | 0.00 | 0.00 | 28 | 1000.7 |
| 20260504194716 | 85 | 303 | 3.0 | 7.0 | 0.00 | 0.00 | 0.00 | 33 | 1000.7 |
| 20260504193813 | 84 | 303 | 4.0 | 9.0 | 0.00 | 0.00 | 0.00 | 28 | 1000.7 |
| 20260504192703 | 85 | 360 | 3.0 | 6.0 | 0.00 | 0.00 | 0.00 | 27 | 1000.8 |
| 20260504192013 | 85 | 355 | 3.0 | 7.0 | 0.00 | 0.00 | 0.00 | 29 | 1000.8 |
| 20260504191115 | 84 | 344 | 6.0 | 12.0 | 0.00 | 0.00 | 0.00 | 29 | 1000.8 |
| 20260504190213 | 84 | 330 | 7.0 | 15.0 | 0.00 | 0.00 | 0.00 | 30 | 1000.8 |
| 20260504185403 | 85 | 327 | 6.0 | 13.0 | 0.00 | 0.00 | 0.00 | 28 | 1000.8 |
| 20260504184717 | 84 | 293 | 5.0 | 12.0 | 0.00 | 0.00 | 0.00 | 31 | 1000.8 |
| 20260504183814 | 85 | 332 | 9.0 | 17.0 | 0.00 | 0.00 | 0.00 | 26 | 1000.9 |
| 20260504182916 | 85 | 319 | 9.0 | 16.0 | 0.00 | 0.00 | 0.00 | 28 | 1000.9 |
| 20260504181803 | 85 | 347 | 11.0 | 20.0 | 0.00 | 0.00 | 0.00 | 28 | 1000.8 |
| 20260504180903 | 85 | 348 | 7.0 | 11.0 | 0.00 | 0.00 | 0.00 | 25 | 1000.9 |
| 20260504180213 | 85 | 318 | 12.0 | 19.0 | 0.00 | 0.00 | 0.00 | 30 | 1000.9 |
| 20260504175403 | 85 | 338 | 10.0 | 17.0 | 0.00 | 0.00 | 0.00 | 27 | 1001.0 |
| 20260504174503 | 84 | 336 | 10.0 | 17.0 | 0.00 | 0.00 | 0.00 | 27 | 1000.9 |
| 20260504173815 | 84 | 335 | 11.0 | 17.0 | 0.00 | 0.00 | 0.00 | 28 | 1001.0 |
| 20260504172703 | 85 | 332 | 12.0 | 18.0 | 0.00 | 0.00 | 0.00 | 30 | 1001.0 |
| 20260504171803 | 83 | 5 | 10.0 | 16.0 | 0.00 | 0.00 | 0.00 | 29 | 1001.1 |
| 20260504171117 | 83 | 7 | 11.0 | 16.0 | 0.00 | 0.00 | 0.00 | 34 | 1001.2 |
| 20260504150903 | 71 | 228 | 5.0 | 8.0 | 0.00 | 0.00 | 0.00 | 49 | 1001.8 |
| 20260504150215 | 71 | 222 | 5.0 | 9.0 | 0.00 | 0.00 | 0.00 | 48 | 1001.8 |
| 20260504140903 | 67 | 201 | 6.0 | 9.0 | 0.00 | 0.00 | 0.00 | 57 | 1001.8 |
| 20260504140216 | 66 | 199 | 6.0 | 8.0 | 0.00 | 0.00 | 0.00 | 58 | 1001.8 |
| 20260504081803 | 56 | 67 | 7.0 | 9.0 | 0.00 | 0.00 | 0.00 | 70 | 1002.3 |
| 20260504080903 | 56 | 48 | 6.0 | 9.0 | 0.00 | 0.00 | 0.00 | 71 | 1002.3 |
| 20260504080214 | 55 | 39 | 7.0 | 9.0 | 0.00 | 0.00 | 0.00 | 73 | 1002.6 |
| 20260504070215 | 59 | 60 | 10.0 | 12.0 | 0.00 | 0.00 | 0.00 | 68 | 1002.9 |
| 20260504050216 | 65 | 75 | 7.0 | 11.0 | 0.00 | 0.00 | 0.00 | 56 | 1004.4 |
| 20260504045404 | 67 | 75 | 8.0 | 12.0 | 0.00 | 0.00 | 0.00 | 54 | 1004.6 |
| 20260504044715 | 68 | 78 | 9.0 | 15.0 | 0.00 | 0.00 | 0.00 | 52 | 1004.6 |
| 20260504043603 | 67 | 96 | 10.0 | 12.0 | 0.00 | 0.00 | 0.00 | 54 | 1004.5 |
| 20260504042703 | 68 | 91 | 11.0 | 17.0 | 0.00 | 0.00 | 0.00 | 52 | 1004.6 |
| 20260504041803 | 70 | 109 | 13.0 | 23.0 | 0.00 | 0.00 | 0.00 | 49 | 1004.6 |
| 20260504040903 | 69 | 142 | 8.0 | 15.0 | 0.00 | 0.00 | 0.00 | 50 | 1004.8 |
| 20260504040003 | 68 | 141 | 3.0 | 8.0 | 0.00 | 0.00 | 0.00 | 51 | 1004.8 |
| 20260504035614 | 68 | 102 | 4.0 | 12.0 | 0.00 | 0.00 | 0.00 | 50 | 1004.8 |
| 20260504034503 | 69 | 90 | 12.0 | 17.0 | 0.00 | 0.00 | 0.00 | 49 | 1004.8 |
| 20260504033603 | 69 | 89 | 12.0 | 17.0 | 0.00 | 0.00 | 0.00 | 50 | 1004.6 |
| 20260504032703 | 69 | 91 | 13.0 | 17.0 | 0.00 | 0.00 | 0.00 | 51 | 1004.9 |
| 20260504032013 | 69 | 94 | 12.0 | 15.0 | 0.00 | 0.00 | 0.00 | 50 | 1005.1 |
| 20260504031115 | 70 | 89 | 10.0 | 14.0 | 0.00 | 0.00 | 0.00 | 49 | 1005.3 |
| 20260504030004 | 70 | 77 | 9.0 | 12.0 | 0.00 | 0.00 | 0.00 | 51 | 1005.3 |
| 20260504025403 | 70 | 67 | 8.0 | 10.0 | 0.00 | 0.00 | 0.00 | 51 | 1005.4 |
| 20260504024503 | 70 | 73 | 9.0 | 11.0 | 0.00 | 0.00 | 0.00 | 50 | 1005.4 |
| 20260504023814 | 70 | 64 | 8.0 | 11.0 | 0.00 | 0.00 | 0.00 | 49 | 1005.4 |
| 20260504022916 | 70 | 62 | 10.0 | 13.0 | 0.00 | 0.00 | 0.00 | 49 | 1005.4 |
| 20260504021803 | 70 | 56 | 10.0 | 12.0 | 0.00 | 0.00 | 0.00 | 49 | 1005.3 |
| 20260504020903 | 69 | 34 | 5.0 | 9.0 | 0.00 | 0.00 | 0.00 | 50 | 1005.7 |
| 20260504020213 | 70 | 60 | 6.0 | 9.0 | 0.00 | 0.00 | 0.00 | 50 | 1005.8 |
| 20260504015403 | 70 | 57 | 6.0 | 9.0 | 0.00 | 0.00 | 0.00 | 48 | 1005.5 |
| 20260504014503 | 70 | 13 | 6.0 | 9.0 | 0.00 | 0.00 | 0.00 | 49 | 1005.5 |